| time (UTC) | temp F | wind direction | speed MPH | gust MPH | rain 1hr in | rain 24hr in | rain mn in | humidity % | barometer mb |
| 20260904213611 | 77 | 305 | 1.0 | 6.0 | 0.00 | 0.09 | 0.09 | 81 | 1013.5 |
| 20260904213043 | 77 | 0 | 1.0 | 6.0 | 0.00 | 0.09 | 0.09 | 81 | 1013.4 |
| 20260904212124 | 77 | 331 | 2.0 | 6.0 | 0.00 | 0.09 | 0.09 | 81 | 1013.5 |
| 20260904212043 | 77 | 329 | 2.0 | 6.0 | 0.00 | 0.09 | 0.09 | 82 | 1013.5 |
| 20260904211123 | 77 | 0 | 1.0 | 5.0 | 0.00 | 0.09 | 0.09 | 81 | 1013.5 |
| 20260904211042 | 77 | 0 | 1.0 | 5.0 | 0.00 | 0.09 | 0.09 | 81 | 1013.5 |
| 20260904210122 | 77 | 303 | 3.0 | 7.0 | 0.00 | 0.09 | 0.09 | 80 | 1013.5 |
| 20260904210043 | 77 | 271 | 3.0 | 8.0 | 0.00 | 0.09 | 0.09 | 81 | 1013.5 |
| 20260904205521 | 79 | 306 | 1.0 | 8.0 | 0.00 | 0.09 | 0.09 | 78 | 1013.3 |
| 20260904205305 | 79 | 298 | 1.0 | 8.0 | 0.00 | 0.09 | 0.09 | 78 | 1013.1 |
| 20260904204526 | 78 | 285 | 2.0 | 9.0 | 0.00 | 0.10 | 0.09 | 78 | 1013.1 |
| 20260904204302 | 78 | 0 | 1.0 | 9.0 | 0.00 | 0.10 | 0.09 | 78 | 1013.1 |
| 20260904203527 | 78 | 303 | 3.0 | 9.0 | 0.00 | 0.11 | 0.09 | 78 | 1013.1 |
| 20260904203300 | 78 | 308 | 3.0 | 9.0 | 0.00 | 0.11 | 0.09 | 77 | 1013.0 |
| 20260904202120 | 78 | 266 | 2.0 | 9.0 | 0.00 | 0.13 | 0.09 | 77 | 1013.1 |
| 20260904202031 | 78 | 317 | 2.0 | 9.0 | 0.00 | 0.14 | 0.09 | 77 | 1013.3 |
| 20260904201554 | 78 | 271 | 2.0 | 7.0 | 0.00 | 0.16 | 0.09 | 77 | 1013.3 |
| 20260904201032 | 78 | 298 | 2.0 | 6.0 | 0.00 | 0.16 | 0.09 | 77 | 1013.4 |
| 20260904200118 | 78 | 334 | 2.0 | 5.0 | 0.00 | 0.16 | 0.09 | 81 | 1013.4 |
| 20260904200029 | 78 | 329 | 2.0 | 5.0 | 0.00 | 0.16 | 0.09 | 80 | 1013.4 |
| 20260904195516 | 78 | 314 | 1.0 | 8.0 | 0.00 | 0.17 | 0.09 | 80 | 1013.6 |
| 20260904195319 | 78 | 0 | 0.0 | 3.0 | 0.00 | 0.24 | 0.09 | 80 | 1013.7 |
| 20260904195250 | 78 | 306 | 1.0 | 8.0 | 0.00 | 0.17 | 0.09 | 81 | 1013.6 |
| 20260904194028 | 77 | 226 | 1.0 | 5.0 | 0.00 | 0.27 | 0.09 | 83 | 1013.7 |
| 20260904193114 | 77 | 301 | 1.0 | 5.0 | 0.00 | 0.28 | 0.09 | 82 | 1013.8 |
| 20260904193027 | 77 | 313 | 1.0 | 5.0 | 0.00 | 0.28 | 0.09 | 82 | 1013.8 |
| 20260904192115 | 77 | 0 | 0.0 | 2.0 | 0.00 | 0.28 | 0.09 | 85 | 1014.0 |
| 20260904192027 | 77 | 0 | 0.0 | 2.0 | 0.00 | 0.28 | 0.09 | 84 | 1014.0 |
| 20260904191113 | 76 | 201 | 0.0 | 2.0 | 0.00 | 0.28 | 0.09 | 83 | 1014.0 |
| 20260904191027 | 76 | 215 | 0.0 | 2.0 | 0.00 | 0.28 | 0.09 | 82 | 1014.0 |
| 20260904190115 | 76 | 0 | 0.0 | 3.0 | 0.00 | 0.28 | 0.09 | 86 | 1014.0 |
| 20260904190027 | 76 | 0 | 0.0 | 3.0 | 0.00 | 0.28 | 0.09 | 87 | 1014.0 |
| 20260904185549 | 77 | 220 | 0.0 | 4.0 | 0.00 | 0.28 | 0.09 | 86 | 1014.1 |
| 20260904185028 | 77 | 227 | 1.0 | 4.0 | 0.00 | 0.28 | 0.09 | 85 | 1014.1 |
| 20260904184113 | 77 | 239 | 0.0 | 3.0 | 0.00 | 0.28 | 0.09 | 87 | 1014.0 |
| 20260904184025 | 77 | 0 | 0.0 | 2.0 | 0.00 | 0.28 | 0.09 | 86 | 1014.0 |
| 20260904183112 | 76 | 0 | 0.0 | 2.0 | 0.00 | 0.28 | 0.09 | 88 | 1014.0 |
| 20260904183025 | 76 | 0 | 0.0 | 2.0 | 0.00 | 0.28 | 0.09 | 89 | 1014.0 |
| 20260904182112 | 76 | 221 | 1.0 | 3.0 | 0.00 | 0.28 | 0.09 | 88 | 1014.3 |
| 20260904182024 | 76 | 0 | 1.0 | 3.0 | 0.00 | 0.28 | 0.09 | 88 | 1014.3 |
| 20260904181546 | 75 | 191 | 1.0 | 4.0 | 0.00 | 0.28 | 0.09 | 91 | 1014.4 |
| 20260904181025 | 75 | 0 | 1.0 | 4.0 | 0.00 | 0.28 | 0.09 | 91 | 1014.4 |
| 20260904180505 | 75 | 230 | 1.0 | 5.0 | 0.00 | 0.28 | 0.09 | 92 | 1014.5 |
| 20260904180242 | 75 | 234 | 1.0 | 5.0 | 0.00 | 0.28 | 0.09 | 92 | 1014.5 |
| 20260904175108 | 75 | 220 | 0.0 | 3.0 | 0.00 | 0.28 | 0.09 | 92 | 1014.4 |
| 20260904175019 | 75 | 174 | 0.0 | 3.0 | 0.00 | 0.28 | 0.09 | 92 | 1014.4 |
| 20260904174105 | 75 | 0 | 1.0 | 5.0 | 0.00 | 0.28 | 0.09 | 91 | 1014.5 |
| 20260904174019 | 75 | 213 | 1.0 | 5.0 | 0.00 | 0.28 | 0.09 | 91 | 1014.4 |
| 20260904174012 | 74 | 0 | 0.0 | 2.0 | 0.00 | 0.28 | 0.09 | 93 | 1014.4 |
| 20260904173822 | 75 | 0 | 1.0 | 4.0 | 0.00 | 0.28 | 0.09 | 92 | 1014.5 |
| 20260904173431 | 75 | 172 | 1.0 | 4.0 | 0.00 | 0.28 | 0.09 | 92 | 1014.5 |
| 20260904172240 | 74 | 0 | 0.0 | 2.0 | 0.00 | 0.28 | 0.09 | 93 | 1014.4 |
| 20260904171104 | 74 | 0 | 1.0 | 6.0 | 0.00 | 0.28 | 0.09 | 93 | 1014.5 |
| 20260904171020 | 74 | 0 | 1.0 | 7.0 | 0.00 | 0.28 | 0.09 | 94 | 1014.5 |
| 20260904170101 | 73 | 233 | 4.0 | 7.0 | 0.00 | 0.28 | 0.09 | 94 | 1014.5 |
| 20260904170008 | 73 | 230 | 4.0 | 7.0 | 0.00 | 0.28 | 0.09 | 95 | 1014.5 |
| 20260904165102 | 73 | 223 | 3.0 | 6.0 | 0.00 | 0.28 | 0.09 | 98 | 1014.6 |
| 20260904165004 | 73 | 235 | 3.0 | 6.0 | 0.00 | 0.28 | 0.09 | 98 | 1014.6 |
| 20260904164452 | 72 | 238 | 2.0 | 5.0 | 0.00 | 0.28 | 0.09 | 99 | 1014.8 |
| 20260904164223 | 72 | 236 | 2.0 | 5.0 | 0.00 | 0.28 | 0.09 | 99 | 1014.8 |
| 20260904163104 | 71 | 218 | 1.0 | 4.0 | 0.00 | 0.33 | 0.09 | 100 | 1014.9 |
| 20260904163005 | 71 | 228 | 1.0 | 4.0 | 0.00 | 0.33 | 0.09 | 100 | 1014.9 |
| 20260904162103 | 70 | 0 | 1.0 | 3.0 | 0.00 | 0.33 | 0.09 | 100 | 1015.2 |
| 20260904162005 | 70 | 139 | 1.0 | 3.0 | 0.00 | 0.33 | 0.09 | 100 | 1015.1 |
| 20260904161102 | 70 | 0 | 0.0 | 2.0 | 0.00 | 0.33 | 0.09 | 100 | 1015.4 |
| 20260904161005 | 70 | 0 | 0.0 | 2.0 | 0.00 | 0.33 | 0.09 | 99 | 1015.4 |
| 20260904160441 | 69 | 113 | 1.0 | 3.0 | 0.00 | 0.35 | 0.09 | 100 | 1015.4 |
| 20260904160226 | 69 | 0 | 1.0 | 3.0 | 0.00 | 0.35 | 0.09 | 100 | 1015.5 |
| 20260904155102 | 69 | 136 | 1.0 | 3.0 | 0.00 | 0.35 | 0.09 | 99 | 1015.7 |
| 20260904155007 | 69 | 156 | 1.0 | 3.0 | 0.00 | 0.35 | 0.09 | 99 | 1015.7 |
| 20260904154445 | 69 | 125 | 0.0 | 3.0 | 0.00 | 0.35 | 0.09 | 99 | 1015.9 |
| 20260904154224 | 69 | 149 | 0.0 | 3.0 | 0.00 | 0.35 | 0.09 | 99 | 1015.8 |
| 20260904153101 | 69 | 0 | 1.0 | 3.0 | 0.00 | 0.38 | 0.09 | 99 | 1016.2 |
| 20260904153002 | 69 | 0 | 1.0 | 3.0 | 0.00 | 0.38 | 0.09 | 99 | 1016.2 |
| 20260904152102 | 69 | 207 | 1.0 | 3.0 | 0.01 | 0.43 | 0.09 | 99 | 1016.4 |
| 20260904152001 | 69 | 0 | 1.0 | 3.0 | 0.01 | 0.44 | 0.09 | 99 | 1016.4 |
| 20260904151102 | 69 | 136 | 1.0 | 3.0 | 0.02 | 0.44 | 0.09 | 99 | 1016.4 |
| 20260904151002 | 68 | 0 | 1.0 | 3.0 | 0.03 | 0.44 | 0.09 | 99 | 1016.4 |
| 20260904150001 | 68 | 118 | 0.0 | 2.0 | 0.04 | 0.44 | 0.09 | 99 | 1016.1 |
| 20260904145102 | 67 | 0 | 0.0 | 2.0 | 0.04 | 0.44 | 0.09 | 99 | 1016.2 |
| 20260904145002 | 67 | 0 | 0.0 | 2.0 | 0.04 | 0.44 | 0.09 | 99 | 1016.2 |
| 20260904144101 | 67 | 0 | 1.0 | 3.0 | 0.04 | 0.44 | 0.09 | 99 | 1016.4 |
| 20260904144002 | 67 | 0 | 1.0 | 3.0 | 0.04 | 0.44 | 0.09 | 99 | 1016.2 |
| 20260904143102 | 67 | 131 | 1.0 | 3.0 | 0.04 | 0.44 | 0.09 | 99 | 1015.9 |
| 20260904143003 | 67 | 134 | 1.0 | 3.0 | 0.04 | 0.44 | 0.09 | 99 | 1015.9 |
| 20260904142102 | 67 | 155 | 1.0 | 2.0 | 0.03 | 0.43 | 0.08 | 99 | 1015.9 |
| 20260904142002 | 67 | 123 | 1.0 | 2.0 | 0.03 | 0.43 | 0.08 | 99 | 1015.9 |
| 20260904141101 | 67 | 0 | 0.0 | 2.0 | 0.02 | 0.42 | 0.07 | 99 | 1015.9 |
| 20260904141002 | 67 | 144 | 1.0 | 2.0 | 0.01 | 0.42 | 0.07 | 99 | 1015.9 |
| 20260904140001 | 67 | 209 | 1.0 | 2.0 | 0.02 | 0.41 | 0.06 | 99 | 1015.9 |
| 20260904135441 | 67 | 0 | 1.0 | 2.0 | 0.04 | 0.41 | 0.06 | 99 | 1016.1 |
| 20260904135223 | 67 | 0 | 1.0 | 2.0 | 0.04 | 0.41 | 0.06 | 99 | 1016.1 |
| 20260904134103 | 67 | 166 | 0.0 | 1.0 | 0.05 | 0.41 | 0.06 | 99 | 1016.1 |
| 20260904134004 | 67 | 0 | 0.0 | 1.0 | 0.05 | 0.41 | 0.06 | 99 | 1016.1 |
| 20260904133104 | 67 | 0 | 0.0 | 1.0 | 0.05 | 0.41 | 0.06 | 99 | 1016.4 |
| 20260904133005 | 67 | 0 | 0.0 | 2.0 | 0.05 | 0.41 | 0.06 | 99 | 1016.4 |
| 20260904132103 | 67 | 63 | 0.0 | 2.0 | 0.06 | 0.41 | 0.06 | 99 | 1016.2 |
| 20260904131954 | 67 | 55 | 1.0 | 2.0 | 0.06 | 0.41 | 0.06 | 99 | 1016.4 |
| 20260904131537 | 67 | 121 | 1.0 | 3.0 | 0.06 | 0.41 | 0.06 | 99 | 1016.4 |
| 20260904130955 | 67 | 111 | 1.0 | 3.0 | 0.06 | 0.41 | 0.06 | 99 | 1016.4 |
| 20260904130435 | 66 | 0 | 0.0 | 0.0 | 0.04 | 0.39 | 0.04 | 99 | 1016.6 |
| 20260904130219 | 66 | 0 | 0.0 | 0.0 | 0.04 | 0.39 | 0.04 | 99 | 1016.7 |
| 20260904125102 | 66 | 0 | 0.0 | 1.0 | 0.02 | 0.37 | 0.01 | 99 | 1016.2 |
| 20260904124953 | 66 | 0 | 0.0 | 1.0 | 0.01 | 0.36 | 0.01 | 99 | 1016.2 |
| 20260904124102 | 66 | 0 | 1.0 | 3.0 | 0.01 | 0.36 | 0.01 | 99 | 1016.2 |
| 20260904123955 | 66 | 0 | 1.0 | 3.0 | 0.01 | 0.36 | 0.00 | 99 | 1016.2 |
| 20260904123102 | 66 | 173 | 1.0 | 3.0 | 0.00 | 0.35 | 0.00 | 99 | 1015.8 |
| 20260904122940 | 66 | 157 | 1.0 | 4.0 | 0.00 | 0.35 | 0.00 | 99 | 1015.8 |
| 20260904122102 | 66 | 165 | 1.0 | 4.0 | 0.00 | 0.35 | 0.00 | 99 | 1016.0 |
| 20260904121941 | 66 | 137 | 1.0 | 3.0 | 0.00 | 0.35 | 0.00 | 99 | 1016.0 |
| 20260904121102 | 66 | 0 | 1.0 | 3.0 | 0.00 | 0.35 | 0.00 | 99 | 1015.8 |
| 20260904120941 | 66 | 203 | 1.0 | 3.0 | 0.00 | 0.35 | 0.00 | 99 | 1015.7 |
| 20260904115941 | 66 | 130 | 1.0 | 3.0 | 0.00 | 0.35 | 0.00 | 99 | 1015.5 |
| 20260904115102 | 66 | 0 | 0.0 | 2.0 | 0.00 | 0.35 | 0.00 | 99 | 1015.6 |
| 20260904114930 | 66 | 140 | 0.0 | 2.0 | 0.00 | 0.35 | 0.00 | 99 | 1015.7 |
| 20260904114103 | 66 | 0 | 0.0 | 3.0 | 0.00 | 0.35 | 0.00 | 99 | 1015.6 |
| 20260904113930 | 66 | 0 | 0.0 | 3.0 | 0.00 | 0.35 | 0.00 | 99 | 1015.6 |
| 20260904113103 | 66 | 0 | 0.0 | 2.0 | 0.00 | 0.35 | 0.00 | 99 | 1015.7 |
| 20260904112929 | 66 | 312 | 0.0 | 3.0 | 0.00 | 0.35 | 0.00 | 99 | 1015.6 |
| 20260904112103 | 66 | 177 | 0.0 | 3.0 | 0.00 | 0.35 | 0.00 | 99 | 1015.4 |
| 20260904111929 | 66 | 158 | 0.0 | 2.0 | 0.00 | 0.35 | 0.00 | 99 | 1015.4 |
| 20260904111103 | 66 | 0 | 0.0 | 0.0 | 0.00 | 0.35 | 0.00 | 99 | 1015.4 |
| 20260904110928 | 66 | 0 | 0.0 | 0.0 | 0.00 | 0.35 | 0.00 | 99 | 1015.4 |
| 20260904105929 | 66 | 0 | 0.0 | 0.0 | 0.00 | 0.35 | 0.00 | 99 | 1015.1 |
| 20260904105102 | 66 | 0 | 0.0 | 0.0 | 0.00 | 0.35 | 0.00 | 99 | 1015.0 |
| 20260904104929 | 66 | 0 | 0.0 | 0.0 | 0.00 | 0.35 | 0.00 | 99 | 1015.0 |
| 20260904104102 | 66 | 0 | 0.0 | 0.0 | 0.00 | 0.35 | 0.00 | 99 | 1014.9 |
| 20260904103928 | 66 | 0 | 0.0 | 0.0 | 0.00 | 0.35 | 0.00 | 99 | 1014.8 |
| 20260904103102 | 66 | 0 | 0.0 | 2.0 | 0.00 | 0.35 | 0.00 | 99 | 1014.8 |
| 20260904102929 | 66 | 0 | 0.0 | 2.0 | 0.00 | 0.35 | 0.00 | 99 | 1014.9 |
| 20260904102549 | 66 | 90 | 0.0 | 2.0 | 0.00 | 0.35 | 0.00 | 99 | 1014.5 |
| 20260904101929 | 66 | 0 | 1.0 | 2.0 | 0.00 | 0.35 | 0.00 | 99 | 1014.5 |
| 20260904101103 | 66 | 118 | 0.0 | 2.0 | 0.00 | 0.35 | 0.00 | 99 | 1014.4 |
| 20260904101017 | 66 | 0 | 0.0 | 2.0 | 0.00 | 0.35 | 0.00 | 99 | 1014.4 |
| 20260904100930 | 66 | 127 | 0.0 | 2.0 | 0.00 | 0.35 | 0.00 | 99 | 1014.4 |
| 20260904095929 | 66 | 0 | 0.0 | 2.0 | 0.00 | 0.35 | 0.00 | 99 | 1014.3 |
| 20260904095543 | 66 | 97 | 0.0 | 2.0 | 0.00 | 0.35 | 0.00 | 99 | 1014.1 |
| 20260904094929 | 66 | 0 | 0.0 | 1.0 | 0.00 | 0.35 | 0.00 | 99 | 1014.2 |
| 20260904094538 | 66 | 0 | 0.0 | 2.0 | 0.00 | 0.35 | 0.00 | 99 | 1014.3 |
| 20260904093930 | 66 | 0 | 0.0 | 2.0 | 0.00 | 0.35 | 0.00 | 99 | 1014.3 |
| 20260904093103 | 66 | 0 | 0.0 | 2.0 | 0.00 | 0.35 | 0.00 | 99 | 1014.6 |
| 20260904092929 | 66 | 0 | 0.0 | 2.0 | 0.00 | 0.35 | 0.00 | 99 | 1014.6 |
| 20260904092551 | 66 | 0 | 0.0 | 2.0 | 0.00 | 0.35 | 0.00 | 99 | 1015.0 |
| 20260904091934 | 66 | 0 | 0.0 | 2.0 | 0.00 | 0.35 | 0.00 | 99 | 1015.0 |
| 20260904091102 | 66 | 0 | 0.0 | 0.0 | 0.00 | 0.35 | 0.00 | 99 | 1015.1 |
| 20260904090930 | 66 | 0 | 0.0 | 0.0 | 0.00 | 0.35 | 0.00 | 99 | 1015.2 |
| 20260904085931 | 66 | 0 | 0.0 | 2.0 | 0.00 | 0.35 | 0.00 | 99 | 1015.1 |
| 20260904085410 | 66 | 69 | 0.0 | 2.0 | 0.00 | 0.35 | 0.00 | 99 | 1015.1 |
| 20260904085150 | 66 | 0 | 0.0 | 2.0 | 0.00 | 0.35 | 0.00 | 99 | 1015.0 |
| 20260904084543 | 66 | 0 | 0.0 | 2.0 | 0.00 | 0.35 | 0.00 | 99 | 1015.2 |
| 20260904083930 | 66 | 332 | 0.0 | 2.0 | 0.00 | 0.35 | 0.00 | 99 | 1015.1 |
| 20260904083101 | 66 | 0 | 0.0 | 1.0 | 0.00 | 0.35 | 0.00 | 99 | 1014.9 |
| 20260904082929 | 66 | 0 | 0.0 | 2.0 | 0.00 | 0.35 | 0.00 | 99 | 1014.9 |
| 20260904082101 | 66 | 0 | 0.0 | 2.0 | 0.00 | 0.35 | 0.00 | 99 | 1014.8 |
| 20260904081930 | 66 | 107 | 0.0 | 2.0 | 0.00 | 0.35 | 0.00 | 99 | 1014.8 |
| 20260904081101 | 66 | 0 | 0.0 | 0.0 | 0.00 | 0.35 | 0.00 | 99 | 1015.1 |
| 20260904080930 | 66 | 0 | 0.0 | 0.0 | 0.00 | 0.35 | 0.00 | 99 | 1015.2 |
| 20260904080101 | 66 | 0 | 0.0 | 0.0 | 0.00 | 0.35 | 0.00 | 99 | 1015.5 |
| 20260904075930 | 66 | 0 | 0.0 | 0.0 | 0.00 | 0.35 | 0.00 | 99 | 1015.4 |
| 20260904075101 | 66 | 0 | 0.0 | 0.0 | 0.00 | 0.35 | 0.00 | 99 | 1015.1 |
| 20260904074929 | 65 | 0 | 0.0 | 0.0 | 0.00 | 0.35 | 0.00 | 99 | 1015.1 |
| 20260904074101 | 65 | 0 | 0.0 | 1.0 | 0.00 | 0.35 | 0.00 | 99 | 1014.9 |
| 20260904073931 | 65 | 0 | 0.0 | 2.0 | 0.00 | 0.35 | 0.00 | 99 | 1014.9 |
| 20260904073541 | 65 | 85 | 0.0 | 2.0 | 0.00 | 0.35 | 0.00 | 99 | 1014.8 |
| 20260904072932 | 65 | 0 | 0.0 | 2.0 | 0.00 | 0.35 | 0.00 | 99 | 1014.9 |
| 20260904072104 | 65 | 0 | 0.0 | 0.0 | 0.00 | 0.35 | 0.00 | 100 | 1015.0 |
| 20260904071932 | 65 | 0 | 0.0 | 0.0 | 0.00 | 0.35 | 0.00 | 99 | 1014.9 |
| 20260904071100 | 65 | 0 | 0.0 | 2.0 | 0.00 | 0.35 | 0.00 | 99 | 1014.8 |
| 20260904070931 | 65 | 0 | 0.0 | 2.0 | 0.00 | 0.35 | 0.00 | 99 | 1014.9 |
| 20260904070411 | 65 | 0 | 0.0 | 0.0 | 0.00 | 0.35 | 0.00 | 99 | 1015.2 |
| 20260904070153 | 65 | 0 | 0.0 | 0.0 | 0.00 | 0.35 | 0.00 | 99 | 1015.2 |
| 20260904065542 | 65 | 0 | 0.0 | 0.0 | 0.00 | 0.35 | 0.00 | 99 | 1015.5 |
| 20260904064931 | 65 | 0 | 0.0 | 0.0 | 0.00 | 0.35 | 0.00 | 99 | 1015.5 |
| 20260904064102 | 65 | 0 | 0.0 | 1.0 | 0.00 | 0.35 | 0.00 | 100 | 1015.7 |
| 20260904063930 | 65 | 0 | 0.0 | 1.0 | 0.00 | 0.35 | 0.00 | 99 | 1015.6 |
| 20260904063411 | 64 | 0 | 0.0 | 0.0 | 0.00 | 0.35 | 0.00 | 100 | 1015.8 |
| 20260904063150 | 64 | 0 | 0.0 | 0.0 | 0.00 | 0.35 | 0.00 | 99 | 1015.8 |
| 20260904062102 | 64 | 0 | 0.0 | 0.0 | 0.00 | 0.35 | 0.00 | 100 | 1015.8 |
| 20260904061930 | 64 | 0 | 0.0 | 0.0 | 0.00 | 0.35 | 0.00 | 100 | 1015.8 |
| 20260904061102 | 64 | 0 | 0.0 | 0.0 | 0.00 | 0.35 | 0.00 | 100 | 1015.7 |
| 20260904060931 | 64 | 0 | 0.0 | 0.0 | 0.00 | 0.35 | 0.00 | 100 | 1015.7 |
| 20260904055930 | 64 | 0 | 0.0 | 0.0 | 0.00 | 0.35 | 0.00 | 100 | 1015.7 |
| 20260904055103 | 64 | 0 | 0.0 | 0.0 | 0.00 | 0.35 | 0.00 | 100 | 1015.6 |
| 20260904054918 | 64 | 0 | 0.0 | 0.0 | 0.00 | 0.35 | 0.00 | 100 | 1015.7 |
| 20260904054102 | 64 | 0 | 0.0 | 0.0 | 0.00 | 0.35 | 0.00 | 100 | 1015.8 |
| 20260904053918 | 64 | 0 | 0.0 | 0.0 | 0.00 | 0.35 | 0.00 | 100 | 1015.8 |
| 20260904053103 | 64 | 0 | 0.0 | 0.0 | 0.00 | 0.35 | 0.00 | 100 | 1015.7 |
| 20260904052918 | 64 | 0 | 0.0 | 0.0 | 0.00 | 0.35 | 0.00 | 100 | 1015.7 |
| 20260904052103 | 64 | 0 | 0.0 | 0.0 | 0.00 | 0.35 | 0.00 | 100 | 1015.7 |
| 20260904052027 | 64 | 0 | 0.0 | 0.0 | 0.00 | 0.35 | 0.00 | 100 | 1015.9 |
| 20260904051918 | 64 | 0 | 0.0 | 0.0 | 0.00 | 0.35 | 0.00 | 100 | 1015.7 |
| 20260904050919 | 64 | 0 | 0.0 | 0.0 | 0.00 | 0.35 | 0.00 | 100 | 1015.9 |
| 20260904045918 | 64 | 0 | 0.0 | 0.0 | 0.00 | 0.35 | 0.00 | 100 | 1015.8 |
| 20260904045102 | 65 | 0 | 0.0 | 0.0 | 0.00 | 0.35 | 0.00 | 100 | 1015.8 |
| 20260904044902 | 65 | 0 | 0.0 | 0.0 | 0.00 | 0.35 | 0.00 | 100 | 1015.9 |
| 20260904044107 | 65 | 0 | 0.0 | 0.0 | 0.00 | 0.35 | 0.00 | 100 | 1015.9 |
| 20260904043903 | 65 | 0 | 0.0 | 0.0 | 0.00 | 0.35 | 0.00 | 100 | 1015.9 |
| 20260904043102 | 65 | 0 | 0.0 | 2.0 | 0.00 | 0.35 | 0.00 | 100 | 1015.9 |
| 20260904042903 | 65 | 0 | 0.0 | 2.0 | 0.00 | 0.35 | 0.00 | 100 | 1015.9 |
| 20260904042540 | 65 | 0 | 0.0 | 1.0 | 0.00 | 0.35 | 0.00 | 100 | 1015.8 |
| 20260904041903 | 65 | 0 | 0.0 | 1.0 | 0.00 | 0.35 | 0.00 | 100 | 1015.8 |
| 20260904041340 | 65 | 0 | 0.0 | 0.0 | 0.00 | 0.35 | 0.00 | 100 | 1015.7 |
| 20260904041130 | 65 | 0 | 0.0 | 0.0 | 0.00 | 0.35 | 0.00 | 100 | 1015.7 |
| 20260904035903 | 64 | 0 | 0.0 | 1.0 | 0.00 | 0.35 | 0.35 | 100 | 1015.5 |
| 20260904035535 | 64 | 0 | 0.0 | 0.0 | 0.00 | 0.35 | 0.35 | 100 | 1015.4 |
| 20260904034902 | 64 | 0 | 0.0 | 0.0 | 0.00 | 0.35 | 0.35 | 100 | 1015.3 |
| 20260904034537 | 64 | 0 | 0.0 | 0.0 | 0.00 | 0.35 | 0.35 | 100 | 1015.2 |
| 20260904033903 | 64 | 0 | 0.0 | 0.0 | 0.00 | 0.35 | 0.35 | 100 | 1015.2 |
| 20260904033101 | 64 | 0 | 0.0 | 0.0 | 0.00 | 0.35 | 0.35 | 99 | 1015.2 |
| 20260904032908 | 64 | 0 | 0.0 | 0.0 | 0.00 | 0.35 | 0.35 | 99 | 1015.1 |
| 20260904032104 | 65 | 0 | 0.0 | 0.0 | 0.00 | 0.35 | 0.35 | 99 | 1015.1 |
| 20260904031904 | 65 | 0 | 0.0 | 0.0 | 0.00 | 0.35 | 0.35 | 99 | 1015.1 |
| 20260904031103 | 65 | 0 | 0.0 | 0.0 | 0.00 | 0.35 | 0.35 | 99 | 1015.1 |
| 20260904030903 | 65 | 0 | 0.0 | 0.0 | 0.00 | 0.35 | 0.35 | 99 | 1015.1 |
| 20260904025902 | 65 | 0 | 0.0 | 1.0 | 0.00 | 0.35 | 0.35 | 99 | 1014.9 |
| 20260904025544 | 65 | 0 | 0.0 | 1.0 | 0.00 | 0.35 | 0.35 | 99 | 1015.0 |
| 20260904024902 | 65 | 259 | 0.0 | 1.0 | 0.00 | 0.35 | 0.35 | 99 | 1014.9 |
| 20260904024615 | 65 | 0 | 0.0 | 0.0 | 0.00 | 0.35 | 0.35 | 99 | 1015.0 |
| 20260904024405 | 65 | 0 | 0.0 | 0.0 | 0.00 | 0.35 | 0.35 | 99 | 1015.1 |
| 20260904023102 | 65 | 0 | 0.0 | 0.0 | 0.00 | 0.35 | 0.35 | 99 | 1015.0 |
| 20260904022902 | 65 | 0 | 0.0 | 0.0 | 0.00 | 0.35 | 0.35 | 99 | 1015.0 |
| 20260904022102 | 65 | 0 | 0.0 | 0.0 | 0.00 | 0.35 | 0.35 | 99 | 1015.0 |
| 20260904021902 | 65 | 0 | 0.0 | 0.0 | 0.00 | 0.35 | 0.35 | 99 | 1015.0 |
| 20260904021102 | 66 | 0 | 0.0 | 0.0 | 0.00 | 0.35 | 0.35 | 99 | 1015.0 |
| 20260904020902 | 66 | 0 | 0.0 | 0.0 | 0.00 | 0.35 | 0.35 | 99 | 1014.9 |
| 20260904020104 | 66 | 0 | 0.0 | 0.0 | 0.00 | 0.35 | 0.35 | 99 | 1014.9 |
| 20260904015905 | 66 | 0 | 0.0 | 0.0 | 0.00 | 0.35 | 0.35 | 99 | 1015.0 |
| 20260904015103 | 66 | 0 | 0.0 | 0.0 | 0.00 | 0.35 | 0.35 | 99 | 1015.0 |
| 20260904014903 | 66 | 0 | 0.0 | 0.0 | 0.00 | 0.35 | 0.35 | 99 | 1015.0 |
| 20260904014107 | 67 | 0 | 0.0 | 0.0 | 0.00 | 0.35 | 0.35 | 99 | 1015.3 |
| 20260904013901 | 67 | 0 | 0.0 | 0.0 | 0.00 | 0.35 | 0.35 | 99 | 1015.3 |
| 20260904013350 | 67 | 0 | 0.0 | 0.0 | 0.00 | 0.35 | 0.35 | 99 | 1015.3 |
| 20260904013141 | 67 | 0 | 0.0 | 0.0 | 0.00 | 0.35 | 0.35 | 99 | 1015.3 |
| 20260904012347 | 67 | 0 | 0.0 | 0.0 | 0.00 | 0.35 | 0.35 | 99 | 1015.3 |
| 20260904012143 | 67 | 0 | 0.0 | 0.0 | 0.00 | 0.35 | 0.35 | 99 | 1015.3 |
| 20260904011101 | 67 | 0 | 0.0 | 1.0 | 0.00 | 0.35 | 0.35 | 99 | 1015.1 |
| 20260904010901 | 67 | 0 | 0.0 | 1.0 | 0.00 | 0.35 | 0.35 | 99 | 1015.1 |
| 20260904010101 | 67 | 71 | 0.0 | 1.0 | 0.00 | 0.35 | 0.35 | 99 | 1015.0 |
| 20260904005901 | 67 | 0 | 0.0 | 1.0 | 0.00 | 0.35 | 0.35 | 99 | 1015.0 |
| 20260904005100 | 67 | 0 | 0.0 | 1.0 | 0.00 | 0.35 | 0.35 | 99 | 1014.9 |
| 20260904005025 | 68 | 53 | 0.0 | 1.0 | 0.00 | 0.35 | 0.35 | 99 | 1014.7 |
| 20260904004900 | 67 | 0 | 0.0 | 1.0 | 0.00 | 0.35 | 0.35 | 99 | 1014.8 |
| 20260904003901 | 68 | 0 | 0.0 | 1.0 | 0.00 | 0.35 | 0.35 | 99 | 1014.7 |
| 20260904003345 | 68 | 0 | 0.0 | 2.0 | 0.00 | 0.35 | 0.35 | 98 | 1014.6 |
| 20260904003141 | 68 | 0 | 0.0 | 2.0 | 0.00 | 0.35 | 0.35 | 98 | 1014.6 |
| 20260904002055 | 68 | 78 | 0.0 | 2.0 | 0.00 | 0.35 | 0.35 | 98 | 1014.2 |
| 20260904001900 | 68 | 0 | 0.0 | 2.0 | 0.00 | 0.35 | 0.35 | 98 | 1014.2 |
| 20260904001056 | 68 | 0 | 1.0 | 3.0 | 0.00 | 0.35 | 0.35 | 98 | 1014.2 |
| 20260904000902 | 68 | 0 | 1.0 | 3.0 | 0.00 | 0.35 | 0.35 | 98 | 1014.2 |
| 20260904000634 | 69 | 300 | 1.0 | 4.0 | 0.00 | 0.35 | 0.35 | 98 | 1014.2 |
| 20260904000442 | 69 | 58 | 1.0 | 4.0 | 0.00 | 0.35 | 0.35 | 98 | 1014.1 |
| 20260903235339 | 69 | 0 | 0.0 | 3.0 | 0.00 | 0.35 | 0.35 | 98 | 1014.0 |
| 20260903235142 | 69 | 323 | 0.0 | 3.0 | 0.00 | 0.35 | 0.35 | 98 | 1014.1 |
| 20260903234051 | 69 | 177 | 0.0 | 2.0 | 0.00 | 0.35 | 0.35 | 98 | 1013.9 |
| 20260903233903 | 69 | 199 | 0.0 | 2.0 | 0.00 | 0.35 | 0.35 | 98 | 1013.9 |
| 20260903233050 | 69 | 0 | 0.0 | 2.0 | 0.00 | 0.35 | 0.35 | 98 | 1013.8 |
| 20260903232902 | 69 | 0 | 0.0 | 2.0 | 0.00 | 0.35 | 0.35 | 98 | 1013.8 |
| 20260903232051 | 69 | 87 | 0.0 | 2.0 | 0.00 | 0.35 | 0.35 | 98 | 1013.5 |
| 20260903231902 | 69 | 0 | 0.0 | 4.0 | 0.00 | 0.35 | 0.35 | 98 | 1013.4 |
| 20260903231052 | 69 | 0 | 1.0 | 4.0 | 0.00 | 0.35 | 0.35 | 98 | 1013.0 |
| 20260903230901 | 69 | 90 | 1.0 | 4.0 | 0.00 | 0.35 | 0.35 | 98 | 1013.0 |
| 20260903230338 | 69 | 0 | 1.0 | 3.0 | 0.00 | 0.35 | 0.35 | 98 | 1013.0 |
| 20260903230139 | 69 | 205 | 1.0 | 3.0 | 0.00 | 0.35 | 0.35 | 98 | 1013.0 |
| 20260903225525 | 69 | 92 | 1.0 | 3.0 | 0.00 | 0.35 | 0.35 | 98 | 1013.3 |
| 20260903224901 | 69 | 203 | 1.0 | 3.0 | 0.00 | 0.35 | 0.35 | 98 | 1013.3 |
| 20260903224048 | 69 | 0 | 0.0 | 3.0 | 0.00 | 0.35 | 0.35 | 98 | 1013.8 |
| 20260903224000 | 69 | 0 | 0.0 | 3.0 | 0.00 | 0.35 | 0.35 | 98 | 1014.2 |
| 20260903223901 | 69 | 0 | 0.0 | 3.0 | 0.00 | 0.35 | 0.35 | 98 | 1013.9 |
| 20260903222901 | 69 | 0 | 0.0 | 3.0 | 0.00 | 0.35 | 0.35 | 98 | 1014.2 |
| 20260903222046 | 69 | 0 | 1.0 | 3.0 | 0.00 | 0.35 | 0.35 | 98 | 1014.0 |
| 20260903221902 | 69 | 105 | 0.0 | 3.0 | 0.00 | 0.35 | 0.35 | 97 | 1014.3 |
| 20260903221046 | 69 | 0 | 1.0 | 3.0 | 0.00 | 0.35 | 0.35 | 97 | 1014.3 |
| 20260903220904 | 69 | 63 | 1.0 | 3.0 | 0.00 | 0.35 | 0.35 | 97 | 1014.2 |
| 20260903220043 | 69 | 249 | 0.0 | 3.0 | 0.00 | 0.35 | 0.35 | 97 | 1014.5 |
| 20260903215900 | 69 | 0 | 0.0 | 3.0 | 0.00 | 0.35 | 0.35 | 97 | 1014.4 |
| 20260903215044 | 70 | 93 | 1.0 | 3.0 | 0.00 | 0.35 | 0.35 | 97 | 1014.3 |
| 20260903214903 | 70 | 0 | 1.0 | 3.0 | 0.00 | 0.35 | 0.35 | 97 | 1014.3 |
| 20260903214342 | 69 | 0 | 2.0 | 6.0 | 0.00 | 0.35 | 0.35 | 96 | 1014.3 |
| 20260903214132 | 69 | 215 | 2.0 | 6.0 | 0.00 | 0.35 | 0.35 | 96 | 1014.5 |